Vorticity
nan nan nan nan nan nan nan nan nan nan nan nan nan nan nan nan nan nan nan nan nan nan nan nan nan nan nan nan nan nan nan nan
nan 7 8 6 7 8 7 6 5 5 6 6 6 7 8 9 9 10 8 8 6 4 7 9 9 8 7 7 8 8 6 nan
nan 8 6 9 9 8 7 6 5 4 7 6 8 8 8 11 9 9 7 7 7 6 6 7 8 7 8 7 6 6 11 nan
nan 11 7 7 6 12 10 8 6 5 7 6 6 5 7 10 11 9 9 11 9 6 6 6 7 7 7 8 7 7 8 nan
nan 12 7 5 9 9 8 10 8 8 7 8 7 4 4 4 10 11 10 8 8 8 8 7 5 7 9 8 6 7 9 nan
nan 15 10 4 6 8 9 8 6 10 9 6 7 7 6 5 10 12 9 9 8 10 9 7 3 6 10 8 7 7 6 nan
nan 17 20 19 9 7 10 9 8 7 9 9 7 5 4 5 9 10 9 9 9 9 10 9 8 7 8 7 8 6 5 nan
nan 9 12 17 22 22 16 9 10 8 9 7 7 7 8 4 5 10 8 7 11 9 9 9 9 8 8 7 8 8 5 nan
nan 7 7 5 8 12 15 24 22 9 7 7 9 5 4 8 4 8 11 9 11 10 8 9 10 8 8 9 7 9 8 nan
nan 8 8 7 7 8 7 11 22 24 9 8 9 8 6 7 6 4 7 10 11 12 10 8 10 9 7 7 9 10 8 nan
nan 7 8 8 8 7 6 8 8 19 25 10 10 9 7 7 11 9 4 5 12 13 10 9 8 8 9 7 7 9 7 nan
nan 8 8 9 7 6 7 6 7 9 14 21 18 9 9 8 8 9 10 5 8 11 12 9 9 9 7 6 7 8 8 nan
nan 8 8 7 7 9 8 7 8 9 7 9 21 21 9 9 8 8 9 8 7 8 9 11 9 9 9 7 6 7 9 nan
nan 8 7 7 9 7 8 9 9 8 9 9 8 18 20 8 9 10 8 9 7 8 8 9 11 10 9 9 8 8 8 nan
nan 10 9 8 8 8 8 9 9 10 9 9 9 9 15 17 12 8 9 10 9 8 9 8 9 11 10 9 10 9 8 nan
nan 11 11 9 9 10 10 10 8 9 10 9 9 9 8 19 18 10 9 9 11 9 9 10 10 10 11 12 10 10 9 nan
nan 10 11 10 11 11 11 10 11 11 11 10 10 11 12 18 17 13 10 10 10 10 9 9 8 11 15 10 7 9 10 nan
nan 13 13 12 11 11 11 11 13 13 11 11 12 12 9 17 24 16 11 11 10 10 9 8 9 10 15 12 5 3 10 nan
nan nan nan nan nan nan nan nan nan nan nan nan nan nan nan nan nan nan nan nan nan nan nan nan nan nan nan nan nan nan nan nan
CAPE
1904 1723 1439 1510 1635 1336 1078 809 440 259 68 44 0 2 0 24 1 4 0 0 0 0 0 7 0 0 0 0 0 0 0 0
1931 1796 1676 1302 1464 1258 1076 806 351 284 117 54 2 1 0 13 0 0 0 0 0 0 0 4 5 0 0 0 0 0 0 0
1662 1710 1473 1257 1358 1361 1174 925 461 327 132 44 33 16 0 1 0 0 0 0 0 0 0 0 3 1 0 0 0 0 0 0
433 1531 1496 1287 1165 1241 1313 1132 752 332 227 38 17 3 0 0 11 8 1 5 0 0 0 0 0 1 0 0 0 0 0 0
464 1513 1584 1404 1122 961 956 1086 955 529 245 106 33 2 1 8 36 38 5 0 8 0 0 0 0 0 2 0 0 0 0 0
0 1314 1561 1755 1379 1043 890 836 990 537 323 176 50 4 0 0 0 50 16 0 2 1 0 0 0 0 0 0 0 0 0 0
0 1 376 1395 1439 1337 1035 1007 1061 409 215 134 40 8 0 0 0 85 49 11 0 7 2 0 0 0 0 0 0 0 0 0
0 0 0 0 175 850 1013 837 849 590 262 135 157 105 85 0 0 25 88 35 49 0 13 3 0 0 0 0 0 0 0 0
0 0 0 0 0 0 0 78 772 673 431 315 346 241 76 2 0 0 129 94 49 46 36 42 0 0 0 0 0 0 0 0
0 0 0 0 0 0 0 0 0 680 433 477 470 440 294 83 1 0 0 105 161 31 47 86 11 0 0 0 0 0 0 0
0 0 0 0 0 0 0 0 0 0 596 678 668 653 575 541 79 0 0 0 34 183 84 122 46 6 0 0 0 0 0 0
0 0 0 0 0 0 0 0 0 0 0 120 677 521 615 575 401 106 0 0 0 161 194 159 36 20 2 0 0 0 0 0
0 0 0 0 0 0 0 0 0 0 0 0 4 536 462 544 432 400 235 40 0 0 74 91 72 45 17 8 9 0 0 0
0 0 0 0 0 0 0 0 0 0 0 0 0 0 365 488 356 382 409 344 81 13 0 30 69 60 24 3 14 0 0 0
0 0 0 0 0 2 3 1 0 0 0 0 0 0 0 430 444 416 486 480 279 125 74 8 48 102 74 32 5 0 0 0
6 6 4 2 2 5 6 8 3 0 0 0 0 0 0 1 554 432 419 504 420 348 177 162 58 163 148 75 29 1 0 0
15 13 10 2 0 13 6 5 3 4 1 0 0 0 0 0 579 591 515 463 400 349 435 389 295 251 219 22 41 32 1 0
11 12 16 13 14 11 7 6 3 4 8 5 2 2 2 0 260 834 731 653 603 451 366 370 415 327 172 0 0 36 10 2
5 6 11 13 15 8 6 3 7 10 6 4 2 2 0 0 37 934 895 830 726 648 602 566 493 418 268 0 1 0 28 4